Вернуться в каталог

COSMOS 2251 DEB

АктивенVLEO
NORAD 35023·DEBRIS·🇷🇺 Russia

Запущен Jun 16, 1993 с Plesetsk Cosmodrome

Loading…

Ближайшие Пролёты (ближайшие 24 часа)

TLE

СвежийSource: Space-Track

Эпоха: Sep 14, 2026, 07:32 UTC

1 35023U 93036AGL 26257.31398154  .00012343  00000-0  86373-3 0  9993
2 35023  74.0358  11.9441 0028607  20.8951  10.0121 15.04978662924132

Отслеживайте COSMOS 2251 DEB в реальном времени с AllMySat

Download on the App Store